Regional Weather Roundup
Issued by NWS

Home | Current Version | Previous Version | Text Only | Print | Product List | Glossary Off
Versions: 1 2 3 4 5 6 7 8 9 10 11 12 13 14 15 16 17 18 19 20 21 22 23 24 25 26 27 28 29 30 31 32 33 34 35 36 37 38 39 40 41 42 43 44 45 46 47 48 49 50

000
ASUS43 KFSD 220110
RWRSD

WEATHER ROUNDUP FOR SOUTH DAKOTA
NATIONAL WEATHER SERVICE SIOUX FALLS SD
800 PM CDT SAT APR 21 2018

NOTE: "FAIR" INDICATES FEW OR NO CLOUDS BELOW 12,000 FEET WITH NO
SIGNIFICANT WEATHER AND/OR OBSTRUCTIONS TO VISIBILITY.


SDZ001>005-009-010-012>017-220200-
NORTHWEST AND NORTH CENTRAL SOUTH DAKOTA

CITY           SKY/WX    TMP DP  RH WIND       PRES   REMARKS
BUFFALO          N/A     54  36  50 S24G30    29.99F
FAITH            N/A     46  39  76 S21G29    30.13S
MOBRIDGE       MOCLDY    51  37  58 S14       30.18S
$$

SDZ012>016-024>037-041>051-057-063-072>074-220200-
SOUTHWEST AND SOUTH CENTRAL SOUTH DAKOTA

CITY           SKY/WX    TMP DP  RH WIND       PRES   REMARKS
RAPID CTY ARPT PTCLDY    48  37  65 S21       30.12F
PIERRE         CLOUDY    46  38  73 SE10      30.22F
CUSTER         PTCLDY    39  33  79 VRB5      30.12F
ELLSWORTH AFB  CLEAR    N/A N/A N/A S23G29    30.12S
PHILIP         PTCLDY    48  39  71 S15       30.18F
PINE RIDGE     PTCLDY    45  38  76 S8        30.17F
SPEARFISH      FAIR      55  39  54 SE7       30.05S
WINNER         FAIR      45  35  68 SE8       30.25F
$$

SDZ004>011-016>023-039-040-220200-
NORTHEAST SOUTH DAKOTA

CITY           SKY/WX    TMP DP  RH WIND       PRES   REMARKS
ABERDEEN       PTCLDY    51  36  56 S8        30.26R
WATERTOWN      CLEAR     48  37  65 SE7       30.27S
BROOKINGS      CLOUDY    44  35  70 SE10      30.30R
SISSETON         N/A     53  42  66 S9        30.27R
$$

SDZ017-020-022-023-036>040-048>070-220200-
SOUTHEAST SOUTH DAKOTA

CITY           SKY/WX    TMP DP  RH WIND       PRES   REMARKS
SIOUX FALLS    CLOUDY    46  38  73 E9        30.28S
HURON          PTCLDY    49  35  58 SE8       30.27S
CHAMBERLAIN    MOCLDY    48  40  73 SE5       30.26S
MITCHELL       MOCLDY    45  38  76 E9        30.27F
YANKTON        CLOUDY    51  34  52 CALM      30.27S
$$

ABBREVIATIONS USED IN REMARKS
   TC - TEMPERATURE IN CELSIUS
  WCI - WIND CHILL INDEX
   HX - HEAT INDEX
  VSB - VISIBILITY





USA.gov is the U.S. government's official web portal to all federal, state and local government web resources and services.